Location: Astronomy Adventures Observing Site
(35.3995°N, 106.1279°W)
Time: 18:49:00
(UTC-06:00)

Envisat - Pass Details

Date: 27 January 2022
Orbit: 764 x 765 km, 98.2° (Epoch: 27 May)

Event Time Altitude Azimuth Distance (km) Brightness Sun altitude
Rises 05:04:56 0° 9° (N) 3,234 6.3 -25.0°
Reaches altitude 10° 05:07:15 10° 8° (N) 2,305 5.5 -24.5°
Maximum altitude 05:12:18 71° 285° (WNW) 807 2.8 -23.5°
Drops below altitude 10° 05:17:20 10° 202° (SSW) 2,292 5.3 -22.5°
Sets 05:19:37 0° 200° (SSW) 3,214 6.1 -22.0°
